Location: Most
(50.5330°N, 13.6500°E)
Time: 08:06:33
(UTC+02:00)

ISS - Visible Passes

Search period start: 20 October 2021 00:00
Search period end: 30 October 2021 00:00
Orbit: 417 x 423 km, 51.6° (Epoch: 20 October)

Date Brightness Start Highest point End Pass type
(mag) Time Alt. Az. Time Alt. Az. Time Alt. Az.
20 Oct -0.5 07:02:08 10° SSE 07:03:30 12° SE 07:04:51 10° ESE visible
22 Oct -1.5 07:02:38 10° SSW 07:05:29 25° SE 07:08:20 10° E visible
23 Oct -1.1 06:16:02 10° S 06:18:24 18° SE 06:20:46 10° E visible
24 Oct -0.9 05:29:55 10° SSE 05:31:22 12° SE 05:32:49 10° ESE visible
24 Oct -2.9 07:04:19 10° SW 07:07:35 50° SSE 07:10:53 10° ENE visible
25 Oct -2.4 06:17:45 13° SW 06:20:24 36° SSE 06:23:32 10° E visible
26 Oct -2.0 05:32:47 25° SSE 05:33:15 26° SE 05:36:07 10° E visible
26 Oct -3.7 07:06:24 10° WSW 07:09:48 85° SSE 07:13:11 10° ENE visible
27 Oct -0.7 04:47:41 14° ESE 04:47:41 14° ESE 04:48:31 10° E visible
27 Oct -3.6 06:20:40 24° WSW 06:22:31 68° SSE 06:25:53 10° ENE visible
28 Oct -3.1 05:35:29 50° SE 05:35:29 50° SE 05:38:33 10° ENE visible
28 Oct -3.7 07:08:40 10° W 07:12:03 73° N 07:15:25 10° E visible
29 Oct -0.8 04:50:12 17° E 04:50:12 17° E 04:51:10 10° E visible
29 Oct -3.8 06:23:11 30° W 06:24:42 81° N 06:28:05 10° ENE visible
